DateTimeUTC,F1_A11,F1_S11,BsB_S11,BsG_S11,BsR_S11,BbsB_S11,BbsG_S11,BbsR_S11,BaB_A11,BaG_A11,BaR_A11,Tu_S11,T_S11,Uu_S11,U_S11,P_S11,T1_A11
2021-06-16T06:00:00Z,00000200,21000000,,,,,,,0000.12,-000.29,-000.02,17.8,24.7,00.9,00.6,0669.4,31.0
2021-06-16T06:01:00Z,00000200,21000000,,,,,,,0000.02,0000.46,0000.22,17.7,24.7,00.9,00.6,0669.4,31.0
2021-06-16T06:02:00Z,00000200,21000000,,,,,,,-000.24,-000.58,-000.20,17.7,24.7,00.9,00.6,0669.4,31.0
2021-06-16T06:03:00Z,00000200,61000000,,,,,,,0000.06,0000.41,0000.22,17.7,24.7,00.9,00.6,0669.4,30.9
2021-06-16T06:04:00Z,00000200,41000000,0000.67,0000.35,0000.17,0000.21,-000.17,0000.04,0000.80,0000.48,0000.39,17.6,24.4,01.1,00.7,0670.3,30.9
2021-06-16T06:05:00Z,00000200,01000000,0000.25,0000.57,0000.09,0000.24,0000.09,0000.00,0000.21,0000.20,0000.34,17.6,24.3,01.1,00.7,0670.3,31.0
2021-06-16T06:06:00Z,00000200,01000000,0000.80,0000.58,0000.41,0000.70,0000.02,0000.46,0000.18,0000.44,0000.16,17.6,24.3,01.1,00.7,0670.3,31.0
2021-06-16T06:07:00Z,00000200,01000000,0000.51,0000.46,0000.09,0000.23,0000.10,0000.27,0000.56,0000.29,0000.22,17.7,24.4,01.1,00.7,0670.4,31.0
2021-06-16T06:08:00Z,00000200,01000000,0000.93,0000.59,0000.35,0000.04,0000.24,0000.07,-000.29,0000.16,-000.30,17.8,24.4,01.1,00.7,0670.4,31.0
2021-06-16T06:09:00Z,00000200,01000000,0000.35,0000.61,0000.27,0000.16,0000.14,0000.19,0000.12,0000.16,0000.36,17.9,24.4,01.1,00.7,0670.4,31.0
2021-06-16T06:10:00Z,00000200,01000000,-000.04,0000.69,0000.53,0000.71,0000.12,-000.10,0000.22,0000.02,0000.38,17.9,24.5,01.0,00.7,0670.4,31.0
2021-06-16T06:11:00Z,00000200,01000000,0000.44,0000.58,0000.21,0000.61,0000.03,0000.10,0000.31,0000.01,-000.51,17.9,24.5,01.0,00.7,0670.4,31.0
2021-06-16T06:12:00Z,00000200,01000000,0000.90,0000.70,-000.08,-000.19,0000.02,-000.23,-000.14,0000.17,0000.30,17.9,24.5,01.1,00.7,0670.4,31.0
2021-06-16T06:13:00Z,00000200,01000000,0000.97,0000.74,0000.09,-000.14,0000.29,0000.13,0000.09,-000.23,0000.35,17.9,24.5,01.0,00.7,0670.4,31.0
2021-06-16T06:14:00Z,00000200,01000000,0001.07,0000.48,0000.32,0000.42,0000.07,0000.19,0000.37,0000.31,-000.06,17.9,24.4,00.9,00.6,0670.4,31.0
2021-06-16T06:15:00Z,00000200,01000000,0000.75,0000.58,0000.37,0000.76,0000.50,0000.09,0000.22,0000.52,-000.05,17.8,24.4,00.9,00.6,0670.4,31.0
2021-06-16T06:16:00Z,00000200,01000000,0001.77,0000.67,0000.06,0000.42,0000.28,0000.23,0000.21,-000.37,0000.23,17.8,24.4,00.9,00.6,0670.4,31.0
2021-06-16T06:17:00Z,00000200,01000000,0001.20,0000.74,0000.37,0000.33,-000.03,-000.07,0000.16,0000.75,0000.27,17.7,24.4,00.9,00.6,0670.4,30.9
2021-06-16T06:18:00Z,00000200,01000000,0000.92,0000.38,-000.09,0000.55,0000.10,-000.28,0000.43,0000.00,0000.29,17.7,24.3,01.1,00.7,0670.4,30.9
2021-06-16T06:19:00Z,00000200,01000000,0001.54,0000.44,0000.29,0000.86,-000.00,-000.00,0000.71,-000.00,0000.13,17.6,24.3,01.1,00.7,0670.3,31.0
2021-06-16T06:20:00Z,00000200,01000000,0001.09,0000.88,0000.25,0000.56,0000.18,0000.16,0000.24,0001.08,0000.27,17.6,24.3,01.2,00.8,0670.3,31.0
2021-06-16T06:21:00Z,00000200,01000000,0000.85,0000.54,0000.20,0000.58,0000.13,0000.01,0000.22,-000.05,0000.27,17.6,24.3,01.2,00.8,0670.3,31.0
2021-06-16T06:22:00Z,00000200,01000000,0001.48,0000.29,0000.37,0000.81,-000.02,0000.12,0000.14,0000.36,0000.06,17.7,24.3,01.2,00.8,0670.3,31.0
2021-06-16T06:23:00Z,00000200,01000000,0001.19,0000.63,0000.31,0000.45,0000.13,0000.27,0000.03,0000.00,0000.17,17.8,24.4,01.2,00.8,0670.3,31.0
2021-06-16T06:24:00Z,00000200,01000000,0000.58,0000.55,0000.42,0000.65,0000.09,0000.05,0000.36,0000.15,0000.02,17.8,24.4,01.2,00.8,0670.4,31.0
2021-06-16T06:25:00Z,00000200,01000000,0000.32,0000.50,0000.33,0000.32,-000.05,0000.07,0000.28,0000.44,0000.42,17.9,24.4,01.1,00.7,0670.3,31.0
2021-06-16T06:26:00Z,00000200,01000000,0000.42,0000.49,0000.09,0000.57,0000.28,-000.04,-000.22,-000.29,0000.16,17.9,24.5,01.1,00.7,0670.4,31.0
2021-06-16T06:27:00Z,00000200,01000000,0001.00,0000.63,0000.25,0000.38,-000.31,-000.23,0000.05,0000.22,-000.24,17.9,24.4,01.2,00.8,0670.4,31.0
2021-06-16T06:28:00Z,00000200,01000000,0000.69,0000.61,0000.41,0000.07,0000.08,0000.09,0000.40,0000.13,0000.12,17.8,24.4,01.1,00.8,0670.3,31.0
2021-06-16T06:29:00Z,00000200,01000000,0000.99,0000.44,0000.34,0000.20,0000.04,0000.04,0000.36,0000.07,0000.15,17.8,24.3,01.1,00.7,0670.3,31.0
2021-06-16T06:30:00Z,00000200,01000000,0000.89,0000.41,0000.20,0000.69,-000.07,-000.03,0000.39,0000.50,0000.26,17.7,24.3,01.1,00.7,0670.3,31.0
2021-06-16T06:31:00Z,00000200,01000000,0000.28,0000.41,0000.42,0000.67,0000.12,0000.56,0000.01,-000.15,0000.19,17.7,24.3,01.1,00.7,0670.3,31.0
2021-06-16T06:32:00Z,00000200,01000000,0001.49,0000.41,0000.45,0000.23,0000.12,-000.01,0000.57,0000.53,-000.04,17.6,24.3,01.3,00.8,0670.3,30.9
2021-06-16T06:33:00Z,00000200,01000000,0000.78,0000.52,0000.25,-000.23,0000.02,0000.06,-000.00,-000.12,0000.36,17.6,24.2,01.2,00.8,0670.3,30.9
2021-06-16T06:34:00Z,00000200,01000000,0000.55,0000.43,0000.20,0000.47,0000.13,-000.06,0000.05,0000.58,0000.06,17.5,24.2,01.3,00.8,0670.3,31.0
2021-06-16T06:35:00Z,00000200,01000000,0000.98,0000.46,0000.18,0001.02,0000.30,-000.12,0000.53,0000.15,0000.20,17.5,24.2,01.2,00.8,0670.3,31.0
2021-06-16T06:36:00Z,00000200,01000000,0000.86,0000.58,0000.27,0000.58,-000.15,0000.18,0000.57,0000.58,0000.42,17.5,24.2,01.3,00.9,0670.3,31.0
2021-06-16T06:37:00Z,00000200,01000000,0000.76,0000.43,0000.55,0000.23,-000.15,-000.04,0000.37,0000.73,0000.45,17.6,24.2,01.4,00.9,0670.3,31.0
2021-06-16T06:38:00Z,00000200,01000000,0001.28,0000.35,0000.45,0000.17,0000.04,0000.27,0000.23,0000.18,0000.10,17.7,24.3,01.5,01.0,0670.3,31.0
2021-06-16T06:39:00Z,00000200,01000000,0000.84,0000.47,0000.34,0000.44,0000.11,0000.06,0000.45,0000.15,0000.19,17.7,24.3,01.5,01.0,0670.3,31.0
2021-06-16T06:40:00Z,00000200,01000000,0000.77,0000.41,0000.03,0000.19,0000.07,-000.30,0000.04,0000.41,0000.06,17.8,24.3,01.6,01.1,0670.3,31.0
2021-06-16T06:41:00Z,00000200,01000000,0000.36,0000.45,0000.02,-000.07,0000.12,-000.32,0000.54,0000.22,0000.46,17.9,24.4,01.6,01.0,0670.3,31.0
2021-06-16T06:42:00Z,00000200,01000000,0000.75,0000.78,0000.20,0000.20,0000.08,0000.04,-000.05,0000.27,-000.25,17.9,24.4,01.6,01.1,0670.3,31.0
2021-06-16T06:43:00Z,00000200,01000000,0000.67,0000.17,0000.40,0000.52,0000.34,0000.35,0000.27,-000.18,0000.43,17.9,24.4,01.5,01.0,0670.3,31.0
2021-06-16T06:44:00Z,00000200,01000000,0000.94,0000.29,0000.21,0000.85,0000.25,-000.08,-000.05,-000.34,-000.04,17.8,24.3,01.5,01.0,0670.3,31.0
2021-06-16T06:45:00Z,00000200,01000000,0000.87,0000.64,0000.15,-000.08,0000.14,0000.08,0000.22,0000.30,-000.35,17.8,24.3,01.4,01.0,0670.3,31.0
2021-06-16T06:46:00Z,00000200,01000000,0000.87,0000.45,0000.09,0000.00,-000.22,-000.09,0000.05,0000.05,0000.33,17.7,24.3,01.4,01.0,0670.4,31.0
2021-06-16T06:47:00Z,00000200,01000000,0001.23,0000.72,0000.37,0000.33,0000.23,-000.08,-000.04,0000.36,-000.25,17.7,24.2,01.3,00.9,0670.4,31.0
2021-06-16T06:48:00Z,00000200,01000000,0000.84,0000.54,0000.14,-000.31,0000.39,0000.24,0000.54,0000.13,0000.14,17.6,24.2,01.4,00.9,0670.4,31.0
2021-06-16T06:49:00Z,00000200,01000000,0001.25,0000.57,0000.37,0000.21,0000.19,-000.08,0000.45,0000.65,0000.78,17.6,24.2,01.5,01.0,0670.3,30.9
2021-06-16T06:50:00Z,00000200,01000000,0000.75,0000.39,0000.15,0000.05,-000.02,-000.08,0000.40,0000.14,0000.14,17.6,24.2,01.5,01.0,0670.4,30.9
2021-06-16T06:51:00Z,00000200,01000000,0000.73,0000.63,0000.44,-000.05,0000.20,0000.23,0000.13,-000.05,0000.08,17.6,24.2,01.5,01.0,0670.3,31.0
2021-06-16T06:52:00Z,00000200,01000000,0001.24,0000.81,0000.24,0000.88,0000.13,-000.28,0000.30,0000.51,0000.40,17.7,24.2,01.5,01.0,0670.4,31.0
2021-06-16T06:53:00Z,00000200,01000000,0001.21,0000.41,0000.17,0000.20,0000.24,-000.00,0000.33,0000.77,0000.27,17.7,24.3,01.5,01.0,0670.4,31.0
2021-06-16T06:54:00Z,00000200,01000000,0000.68,0000.53,-000.08,0000.34,0000.17,-000.06,0000.15,-000.27,-000.10,17.8,24.3,01.5,01.0,0670.4,31.0
2021-06-16T06:55:00Z,00000200,01000000,0000.54,0000.58,0000.24,0000.41,0000.01,0000.19,0000.37,0000.48,0000.43,17.9,24.4,01.6,01.1,0670.4,31.0
2021-06-16T06:56:00Z,00000200,01010000,0001.49,0000.49,0000.29,0000.34,0000.13,0000.06,-000.42,-000.12,-000.24,17.9,24.4,01.6,01.1,0670.4,31.0
2021-06-16T06:57:00Z,00000200,40000000,,,,,,,0000.37,-000.59,-000.25,17.9,24.4,01.6,01.1,0670.5,31.0
2021-06-16T06:58:00Z,00000200,61000000,,,,,,,-000.16,0000.50,0000.09,17.7,24.5,01.3,00.9,0669.4,31.0
2021-06-16T06:59:00Z,00000200,21000000,,,,,,,0000.09,-000.21,-000.11,17.7,24.6,01.2,00.8,0669.4,31.0
